Flag for Barbados Weather past 2 weeks in Bridgetown, Barbados

Now
84 °F

Partly sunny.


Feels Like: 96 °F
Forecast: N/A
Wind: 13 mph from Northeast

Location: Grantley Adams

Current Time: Aug 31, 2015 at 6:59:43 PM

Latest Report: Aug 31, 2015 at 5:00 PM


Visibility: N/A

Pressure: 29.92 "Hg

Humidity: 84%

Dew point: 79 °F

Location of BridgetownLocation

Historic Weather in Bridgetown — Graph

°F

Bridgetown temperature yesterday

Maximum temperature yesterday: 88 °F (at 12:00 PM)
Minimum temperature yesterday: 79 °F (at 12:00 AM)
Average temperature yesterday: 83 °F

Past Weeks' High & Low Weather Summary

 TemperatureHumidityPressure
High90 °F (Aug 20, 1:00 PM)100% (Aug 26, 5:00 AM)30.01 "Hg (Aug 26, 5:00 AM)
Low75 °F (Aug 24, 5:00 AM)59% (Aug 28, 12:00 PM)29.83 "Hg (Aug 23, 4:00 AM)
Average83 °F78%29.92 "Hg
* Reported Aug 16 5:00 PM — Aug 31 5:00 PM, Bridgetown, Weather by CustomWeather, © 2015

Note: Actual official high and low records may vary slightly from our data, if they occured in-between our weather recording intervals... More about our weather records

Advertising

Bridgetown weather history for previous 24 hours

 ConditionsComfort  
Time TempWeatherWind HumidityBarometerVisibility
5:00 PM
Mon, Aug 31
84 °FPartly sunny.13 mph84%29.92 "HgN/A
4:00 PM86 °FScattered clouds.14 mph79%29.95 "HgN/A
3:00 PM88 °FScattered clouds.14 mph70%29.95 "HgN/A
2:00 PM88 °FPassing clouds.15 mph70%29.95 "HgN/A
1:00 PM88 °FScattered clouds.15 mph70%29.98 "HgN/A
12:00 PM88 °FScattered clouds.16 mph70%30.01 "HgN/A
11:00 AM88 °FPassing clouds.14 mph75%30.01 "HgN/A
10:00 AM86 °FScattered clouds.13 mph75%30.01 "HgN/A
9:00 AM84 °FScattered clouds.16 mph70%30.01 "HgN/A
8:00 AM82 °FScattered clouds.3 mph79%30.01 "HgN/A
7:00 AM81 °FScattered clouds.9 mph84%29.95 "HgN/A
6:00 AM81 °FScattered clouds.9 mph84%29.95 "HgN/A
5:00 AM81 °FSprinkles. Passing clouds.8 mph89%29.95 "HgN/A
4:00 AM81 °FPartly cloudy.9 mph89%29.95 "HgN/A
3:00 AM81 °FPassing clouds.9 mph89%29.92 "HgN/A
2:00 AM81 °FPassing clouds.10 mph89%29.95 "HgN/A
1:00 AM81 °FPartly cloudy.10 mph89%29.98 "HgN/A
12:00 AM81 °FPassing clouds.9 mph89%29.98 "HgN/A
11:00 PM
Sun, Aug 30
81 °FPassing clouds.8 mph84%29.98 "HgN/A
10:00 PM81 °FPassing clouds.21 mph89%30.01 "HgN/A
9:00 PM81 °FPassing clouds.13 mph79%29.98 "HgN/A
8:00 PM81 °FPassing clouds.14 mph89%29.98 "HgN/A
7:00 PM81 °FPassing clouds.10 mph89%29.95 "HgN/A
6:00 PM81 °FPartly sunny.12 mph89%29.95 "HgN/A
Weather by CustomWeather, © 2015

See weather overviewHow to use our weather pages